Hourly Data Report for March 23, 2017

All times are specified in Local Standard Time (LST). Add 1 hour to adjust for Daylight Saving Time where and when it is observed.

TORONTO CITY
ONTARIO

43°40'00.000" N
79°24'00.000" W
112.50 m
6158355
71508
XTO

Download Data

Hourly Data (March 2017)
Hourly Data Report for March 23, 2017
TIME Temp Definition
°C
Dew Point Definition
°C
Rel Hum Definition
%
Wind Dir Definition
10's deg

Wind Spd Definition
km/h
Visibility Definition
km
Stn Press Definition
kPa
Hmdx Definition


Wind Chill Definition


Weather Definition


00:00 -5.6 -11.2 65 LegendMM LegendMM   102.03     LegendNANA
01:00 -5.8 -12.0 61 LegendMM LegendMM   102.04     LegendNANA
02:00 -6.1 -11.8 64 LegendMM LegendMM   102.05     LegendNANA
03:00 -6.2 -11.4 67 LegendMM LegendMM   102.08     LegendNANA
04:00 -6.5 -11.4 68 LegendMM LegendMM   102.11     LegendNANA
05:00 -6.8 -11.2 71 LegendMM LegendMM   102.12     LegendNANA
06:00 -6.7 -11.0 72 LegendMM LegendMM   102.16     LegendNANA
07:00 -6.0 -10.6 70 LegendMM LegendMM   102.18     LegendNANA
08:00 -4.3 -10.1 64 LegendMM LegendMM   102.24     LegendNANA
09:00 -3.0 -9.4 61 LegendMM LegendMM   102.26     LegendNANA
10:00 -1.1 -8.8 56 LegendMM LegendMM   102.24     LegendNANA
11:00 -1.3 -8.6 58 LegendMM LegendMM   102.23     LegendNANA
12:00 -0.8 -10.3 49 LegendMM LegendMM   102.19     LegendNANA
13:00 0.2 -11.9 40 LegendMM LegendMM   102.07     LegendNANA
14:00 0.7 -14.7 30 LegendMM LegendMM   101.97     LegendNANA
15:00 1.8 -15.8 26 LegendMM LegendMM   101.84     LegendNANA
16:00 1.6 -11.5 37 LegendMM LegendMM   101.74     LegendNANA
17:00 1.5 -10.6 40 LegendMM LegendMM   101.68     LegendNANA
18:00 1.1 -8.3 49 LegendMM LegendMM   101.64     LegendNANA
19:00 0.5 -7.3 56 LegendMM LegendMM   101.59     LegendNANA
20:00 0.6 -6.4 60 LegendMM LegendMM   101.59     LegendNANA
21:00 0.7 -4.9 66 LegendMM LegendMM   101.47     LegendNANA
22:00 1.1 -3.7 71 LegendMM LegendMM   101.29     LegendNANA
23:00 1.7 -4.0 66 LegendMM LegendMM   101.20     LegendNANA

Notes on Data Quality.

Legend

  • E = Estimated
  • M = Missing
  • NA = Not Available
Date modified: